When you browse on this site, cookies collect data to enhance your experience and personalize the content and advertising you see.
Visit our Privacy Policy to learn more. By continuing to use the site, you agree to this use of cookies and data.

Hourly Weather Rudniki

Today, 9 July, Thursday

Time Temperature Precipitation Wind Pressure Humidity
00:00 +12°C° 0 mm 2 mps 740 mmHg 97%
01:00 +12°C° 0 mm 2 mps 740 mmHg 98%
02:00 +10°C° 0 mm 2 mps 740 mmHg 98%
03:00 +11°C° 0 mm 1 mps 740 mmHg 97%
04:00 +11°C° 0 mm 1 mps 740 mmHg 97%
05:00 +12°C° 0 mm 1 mps 740 mmHg 93%
06:00 +14°C° 0 mm 1 mps 740 mmHg 88%
07:00 +15°C° 0 mm 1 mps 741 mmHg 83%
08:00 +17°C° 0 mm 2 mps 741 mmHg 76%
09:00 +18°C° 0 mm 2 mps 741 mmHg 69%
10:00 +19°C° 0 mm 2 mps 741 mmHg 62%
11:00 +20°C° 0 mm 3 mps 741 mmHg 58%
12:00 +21°C° 0 mm 3 mps 740 mmHg 55%
13:00 +22°C° 0 mm 3 mps 740 mmHg 52%
14:00 +22°C° 0 mm 3 mps 740 mmHg 54%
15:00 +22°C° 0 mm 4 mps 739 mmHg 56%
16:00 +22°C° 0 mm 5 mps 739 mmHg 59%
17:00 +21°C° 0 mm 4 mps 739 mmHg 66%
18:00 +20°C° 0 mm 4 mps 738 mmHg 72%
19:00 +19°C° 0 mm 4 mps 738 mmHg 79%
20:00 +19°C° 0 mm 4 mps 738 mmHg 82%
21:00 +18°C° 0 mm 4 mps 738 mmHg 86%
22:00 +18°C° 0 mm 4 mps 738 mmHg 90%
23:00 +18°C° 0 mm 4 mps 738 mmHg 91%

Tomorrow, 10 July, Friday

Time Temperature Precipitation Wind Pressure Humidity
00:00 +18°C° 0 mm 4 mps 738 mmHg 92%
01:00 +17°C° 0 mm 4 mps 738 mmHg 93%
02:00 +17°C° 0 mm 4 mps 738 mmHg 92%
03:00 +17°C° 0 mm 4 mps 738 mmHg 91%
04:00 +17°C° 0 mm 4 mps 737 mmHg 91%
05:00 +18°C° 0 mm 4 mps 737 mmHg 87%
06:00 +20°C° 0 mm 4 mps 737 mmHg 83%
07:00 +21°C° 0 mm 4 mps 737 mmHg 80%
08:00 +22°C° 0 mm 5 mps 737 mmHg 73%
09:00 +25°C° 0 mm 5 mps 737 mmHg 67%
10:00 +27°C° 0 mm 5 mps 737 mmHg 61%
11:00 +28°C° 0 mm 6 mps 737 mmHg 57%
12:00 +28°C° 0 mm 7 mps 737 mmHg 53%
13:00 +29°C° 0 mm 7 mps 737 mmHg 50%
14:00 +30°C° 0 mm 7 mps 736 mmHg 51%
15:00 +30°C° 0 mm 6 mps 736 mmHg 52%
16:00 +30°C° 0 mm 6 mps 736 mmHg 53%
17:00 +28°C° 0.2 mm 5 mps 736 mmHg 59%
18:00 +27°C° 0.2 mm 5 mps 735 mmHg 64%
19:00 +26°C° 0.2 mm 4 mps 735 mmHg 69%
20:00 +23°C° 1.3 mm 4 mps 736 mmHg 77%
21:00 +21°C° 1.3 mm 3 mps 736 mmHg 84%
22:00 +20°C° 1.3 mm 3 mps 737 mmHg 92%
23:00 +20°C° 1.2 mm 3 mps 737 mmHg 93%

Day after tomorrow, 11 July, Saturday

Time Temperature Precipitation Wind Pressure Humidity
00:00 +19°C° 1.2 mm 3 mps 738 mmHg 95%
01:00 +19°C° 1.2 mm 3 mps 738 mmHg 96%
02:00 +19°C° 0.4 mm 3 mps 738 mmHg 96%
03:00 +18°C° 0.4 mm 2 mps 738 mmHg 96%
04:00 +18°C° 0.4 mm 2 mps 739 mmHg 96%
05:00 +17°C° 0.3 mm 3 mps 739 mmHg 95%
06:00 +17°C° 0.3 mm 4 mps 739 mmHg 94%
07:00 +15°C° 0.3 mm 5 mps 739 mmHg 93%
08:00 +14°C° 1.2 mm 5 mps 740 mmHg 93%
09:00 +14°C° 1.2 mm 5 mps 740 mmHg 93%
10:00 +13°C° 1.2 mm 5 mps 741 mmHg 93%
11:00 +13°C° 1 mm 5 mps 741 mmHg 93%
12:00 +13°C° 1 mm 5 mps 741 mmHg 92%
13:00 +13°C° 1 mm 5 mps 742 mmHg 91%
14:00 +12°C° 0.8 mm 4 mps 742 mmHg 92%
15:00 +12°C° 0.8 mm 4 mps 742 mmHg 93%
16:00 +12°C° 0.8 mm 3 mps 743 mmHg 93%
17:00 +13°C° 1.5 mm 2 mps 743 mmHg 94%
18:00 +13°C° 1.5 mm 2 mps 743 mmHg 94%
19:00 +13°C° 1.5 mm 1 mps 743 mmHg 95%
20:00 +13°C° 1 mm 1 mps 744 mmHg 95%
21:00 +12°C° 1 mm 1 mps 744 mmHg 96%
22:00 +12°C° 1 mm 1 mps 744 mmHg 96%
23:00 +12°C° 0.2 mm 1 mps 744 mmHg 96%

12 July, Sunday

Time Temperature Precipitation Wind Pressure Humidity
00:00 +12°C° 0.2 mm 1 mps 744 mmHg 95%
01:00 +12°C° 0.2 mm 1 mps 743 mmHg 95%
02:00 +12°C° 0 mm 1 mps 743 mmHg 95%
03:00 +12°C° 0 mm 1 mps 743 mmHg 95%
04:00 +12°C° 0 mm 1 mps 743 mmHg 95%
05:00 +12°C° 0.1 mm 2 mps 744 mmHg 92%
06:00 +13°C° 0.1 mm 2 mps 744 mmHg 88%
07:00 +14°C° 0.1 mm 2 mps 744 mmHg 85%
08:00 +13°C° 0.2 mm 3 mps 744 mmHg 82%
09:00 +14°C° 0.2 mm 3 mps 744 mmHg 79%
10:00 +16°C° 0.2 mm 3 mps 744 mmHg 77%
11:00 +15°C° 0.3 mm 4 mps 744 mmHg 74%
12:00 +17°C° 0.3 mm 4 mps 744 mmHg 71%
13:00 +17°C° 0.3 mm 4 mps 744 mmHg 68%
14:00 +17°C° 0.3 mm 4 mps 744 mmHg 69%
15:00 +17°C° 0.3 mm 3 mps 744 mmHg 69%
16:00 +17°C° 0.3 mm 3 mps 744 mmHg 69%
17:00 +16°C° 0.2 mm 3 mps 744 mmHg 73%
18:00 +15°C° 0.2 mm 2 mps 744 mmHg 77%
19:00 +15°C° 0.2 mm 2 mps 744 mmHg 82%
20:00 +14°C° 0.1 mm 2 mps 744 mmHg 83%
21:00 +13°C° 0.1 mm 2 mps 744 mmHg 84%
22:00 +12°C° 0.1 mm 2 mps 744 mmHg 86%
23:00 +12°C° 0 mm 2 mps 744 mmHg 86%

13 July, Monday

Time Temperature Precipitation Wind Pressure Humidity
00:00 +12°C° 0 mm 2 mps 744 mmHg 87%
01:00 +12°C° 0 mm 2 mps 744 mmHg 88%
02:00 +10°C° 0 mm 2 mps 744 mmHg 90%
03:00 +10°C° 0 mm 3 mps 743 mmHg 91%
04:00 +9°C° 0 mm 3 mps 743 mmHg 93%
05:00 +10°C° 0 mm 3 mps 743 mmHg 91%
06:00 +11°C° 0 mm 3 mps 743 mmHg 89%
07:00 +11°C° 0 mm 3 mps 743 mmHg 87%
08:00 +12°C° 0.1 mm 4 mps 743 mmHg 86%
09:00 +13°C° 0.1 mm 4 mps 743 mmHg 84%
10:00 +14°C° 0.1 mm 5 mps 743 mmHg 82%
11:00 +15°C° 0.5 mm 5 mps 742 mmHg 80%
12:00 +16°C° 0.5 mm 5 mps 742 mmHg 78%
13:00 +16°C° 0.5 mm 6 mps 742 mmHg 76%
14:00 +17°C° 0.2 mm 5 mps 741 mmHg 72%
15:00 +19°C° 0.2 mm 5 mps 741 mmHg 69%
16:00 +19°C° 0.2 mm 5 mps 740 mmHg 65%
17:00 +17°C° 0.3 mm 5 mps 740 mmHg 71%
18:00 +17°C° 0.3 mm 4 mps 740 mmHg 77%
19:00 +15°C° 0.3 mm 4 mps 740 mmHg 83%
20:00 +14°C° 0.1 mm 3 mps 740 mmHg 86%
21:00 +13°C° 0.1 mm 3 mps 740 mmHg 89%
22:00 +12°C° 0.1 mm 3 mps 740 mmHg 92%
23:00 +12°C° 0 mm 3 mps 740 mmHg 93%

14 July, Tuesday

Time Temperature Precipitation Wind Pressure Humidity
00:00 +12°C° 0 mm 3 mps 740 mmHg 94%
01:00 +11°C° 0 mm 3 mps 740 mmHg 95%
02:00 +11°C° 0 mm 3 mps 740 mmHg 95%
03:00 +10°C° 0 mm 2 mps 740 mmHg 95%
04:00 +10°C° 0 mm 2 mps 740 mmHg 96%
05:00 +12°C° 0 mm 2 mps 740 mmHg 92%
06:00 +13°C° 0 mm 3 mps 740 mmHg 89%
07:00 +14°C° 0 mm 3 mps 740 mmHg 85%
08:00 +16°C° 0.2 mm 3 mps 740 mmHg 80%
09:00 +17°C° 0.2 mm 4 mps 740 mmHg 75%
10:00 +19°C° 0.2 mm 5 mps 740 mmHg 70%
11:00 +19°C° 0.1 mm 5 mps 740 mmHg 66%
12:00 +20°C° 0.1 mm 5 mps 740 mmHg 63%
13:00 +21°C° 0.1 mm 5 mps 739 mmHg 59%
14:00 +21°C° 0.1 mm 4 mps 739 mmHg 60%
15:00 +21°C° 0.1 mm 4 mps 739 mmHg 60%
16:00 +21°C° 0.1 mm 4 mps 739 mmHg 60%
17:00 +20°C° 0.1 mm 3 mps 739 mmHg 66%
18:00 +19°C° 0.1 mm 3 mps 739 mmHg 71%
19:00 +18°C° 0.1 mm 2 mps 739 mmHg 76%
20:00 +17°C° 0 mm 2 mps 739 mmHg 79%
21:00 +16°C° 0 mm 2 mps 739 mmHg 82%
22:00 +15°C° 0 mm 2 mps 739 mmHg 85%
23:00 +14°C° 0 mm 2 mps 739 mmHg 86%
Show more